Location: Huesca
(42.1318°N, 0.4078°W)
Time: 13:00:18
(UTC+02:00)

Courier 1B - Pass Details

Date: 22 July 2024
Orbit: 962 x 1208 km, 28.3° (Epoch: 18 May)

Event Time Altitude Azimuth Distance (km) Brightness Sun altitude
Rises 14:47:50 0° 235° (SW) 4,101 11.0 66.4°
Reaches altitude 10° 14:51:14 10° 223° (SW) 3,126 10.7 66.2°
Maximum altitude 14:57:21 26° 171° (S) 2,142 10.1 65.6°
Drops below altitude 10° 15:03:18 10° 119° (ESE) 3,031 10.2 65.1°
Sets 15:06:32 0° 107° (ESE) 3,953 10.6 64.8°
